Погода в Файя-Ларжо

Чад     17°55′38″N   19°05′59″E
темп.,
°C
ветер,
м/с
пор.,
м/с
влажн.,
%
обл.,
%
осадки,
мм/ч
давл.,
гПа
погр.,
м
10 августа, ср
ср1001:00+35ю2221100 0.0 100613
04:00+33ююз332946 0.0 100641
07:00+34ссз35265 0.0 1008248
10:00+39всв55170 0.0 10071267
13:00+41ююв45170 0.0 10053468
16:00+42ю24166 0.0 10033827
19:00+39в12165 0.0 100420
22:00+37юв121977 0.0 100512
11 августа, чт
чт1101:00+36ссв331942 0.0 100422
04:00+34всв571810 0.0 100582
07:00+34ссв914175 0.0 1008695
10:00+38св1011130 0.0 10081340
13:00+42всв77115 0.0 10042610
16:00+42св55110 0.0 10023453
19:00+39ссв57134 0.0 100278
22:00+37св59155 0.0 1004119
12 августа, пт
пт1201:00+35св6111730 0.0 1004181
04:00+32св471899 0.0 1005144
07:00+33св812165 0.0 1007629
10:00+39св1012120 0.0 10071350
13:00+42всв7890 0.0 10042696
16:00+43всв5690 0.0 10023933
19:00+39вюв34135 0.0 100331
22:00+36ююз332163 0.0 100524
13 августа, сб
сб1301:00+35юз222785 0.0 100512
04:00+29ю8115693 0.0 1008556
07:00+29юз795691 0.0 1009561
10:00+34зсз454046 0.0 10091262
13:00+40зсз241912 0.0 10052294
16:00+42св46920 0.0 10033342
19:00+39всв341272 0.0 100340
22:00+36ссв111587 0.0 100413
14 августа, вс
вс1401:00+35вюв331799 0.0 100524
04:00+33ююв7104095 0.0 1006478
07:00+30ююз775778 0.0 1009686
10:00+33з334427 0.0 10081188
13:00+37ссз12295 0.0 10052036
16:00+39ююз552577 0.0 10032917
19:00+36ююз1010356 0.0 1004853
22:00+32юз5841100 0.0 1007366